Location: Alpha Ridge Park
(39.3209°N, 76.9128°W)
Time: 06:38:01
(UTC-04:00)

AO-92 - Pass Details

Date: 03 July 2022
Orbit: 469 x 481 km, 97.4° (Epoch: 09 August)

Event Time Altitude Azimuth Distance (km) Brightness Sun altitude
Exits shadow 22:39:10 28° 81° (E) 935 ? -18.3°
Maximum altitude 22:39:27 28° 72° (ENE) 927 ? -18.3°
Drops below altitude 10° 22:42:33 10° 12° (NNE) 1,666 ? -18.7°
Sets 22:44:48 0° 0° (N) 2,553 ? -18.9°
